Time,TemperatureF,DewpointF,PressureIn,WindDirection,WindDirectionDegrees,WindSpeedMPH,WindSpeedGustMPH,Humidity,HourlyPrecipIn,Conditions,Clouds,dailyrainin,SoftwareType,DateUTC
2013-07-07 00:01:00,67.5,64.7,29.91,WSW,248,0.0,0.4,91,0.01,,,0.00,WUHU216HW,2013-07-07 04:01:00,
2013-07-07 00:06:00,67.5,65.1,29.91,SSW,203,0.0,0.7,92,0.00,,,0.00,WUHU216HW,2013-07-07 04:06:00,
2013-07-07 00:11:00,67.5,65.1,29.91,SSW,203,0.0,0.7,92,0.00,,,0.00,WUHU216HW,2013-07-07 04:11:00,
2013-07-07 00:16:00,67.5,65.1,29.91,SSW,203,0.0,0.0,92,0.00,,,0.00,WUHU216HW,2013-07-07 04:16:00,
2013-07-07 00:21:00,67.5,65.1,29.91,SSW,203,0.0,0.0,92,0.00,,,0.00,WUHU216HW,2013-07-07 04:21:00,
2013-07-07 00:26:00,67.5,65.1,29.91,SSW,203,0.0,0.0,92,0.00,,,0.00,WUHU216HW,2013-07-07 04:26:00,
2013-07-07 00:31:00,67.5,65.1,29.91,SSW,203,0.0,0.0,92,0.00,,,0.00,WUHU216HW,2013-07-07 04:31:00,
2013-07-07 00:36:00,67.5,65.1,29.91,SSW,203,0.0,0.0,92,0.00,,,0.00,WUHU216HW,2013-07-07 04:36:00,
2013-07-07 00:41:00,67.5,65.1,29.91,SSW,203,0.0,0.0,92,0.00,,,0.00,WUHU216HW,2013-07-07 04:41:00,
2013-07-07 00:46:00,67.5,65.1,29.91,SSW,203,0.0,0.9,92,0.00,,,0.00,WUHU216HW,2013-07-07 04:46:00,
2013-07-07 00:51:00,67.3,64.9,29.91,SSW,203,0.0,1.1,92,0.00,,,0.00,WUHU216HW,2013-07-07 04:51:00,
2013-07-07 00:56:00,67.5,65.1,29.91,SSW,203,0.0,1.1,92,0.00,,,0.00,WUHU216HW,2013-07-07 04:56:00,
2013-07-07 01:01:00,67.3,64.9,29.91,SSW,203,0.0,0.4,92,0.00,,,0.00,WUHU216HW,2013-07-07 05:01:00,
2013-07-07 01:06:00,67.3,64.9,29.91,SSW,203,0.0,0.4,92,0.00,,,0.00,WUHU216HW,2013-07-07 05:06:00,
2013-07-07 01:11:00,67.3,64.9,29.91,SSW,203,0.0,0.0,92,0.00,,,0.00,WUHU216HW,2013-07-07 05:11:00,
2013-07-07 01:16:00,67.3,64.9,29.91,South,180,0.0,0.0,92,0.00,,,0.00,WUHU216HW,2013-07-07 05:16:00,
2013-07-07 01:21:00,67.3,65.2,29.91,SSW,203,0.0,0.0,93,0.00,,,0.00,WUHU216HW,2013-07-07 05:21:00,
2013-07-07 01:26:00,67.3,65.2,29.91,South,180,0.0,0.0,93,0.00,,,0.00,WUHU216HW,2013-07-07 05:26:00,
2013-07-07 01:31:00,67.3,65.2,29.90,South,180,1.1,1.1,93,0.00,,,0.00,WUHU216HW,2013-07-07 05:31:00,
2013-07-07 01:36:00,67.1,65.0,29.90,South,180,0.0,1.1,93,0.00,,,0.00,WUHU216HW,2013-07-07 05:36:00,
2013-07-07 01:41:00,67.1,65.0,29.90,South,180,0.0,1.1,93,0.00,,,0.00,WUHU216HW,2013-07-07 05:41:00,
2013-07-07 01:46:00,67.1,65.0,29.90,South,180,0.0,0.4,93,0.00,,,0.00,WUHU216HW,2013-07-07 05:46:00,
2013-07-07 01:51:00,67.1,65.0,29.90,South,180,0.2,0.9,93,0.00,,,0.00,WUHU216HW,2013-07-07 05:51:00,
2013-07-07 01:56:00,67.1,65.0,29.90,South,180,0.0,0.9,93,0.00,,,0.00,WUHU216HW,2013-07-07 05:56:00,
2013-07-07 02:01:00,67.0,64.8,29.90,SSW,203,0.0,0.9,93,0.00,,,0.00,WUHU216HW,2013-07-07 06:01:00,
2013-07-07 02:06:00,67.0,64.8,29.90,SSW,203,0.0,0.9,93,0.00,,,0.00,WUHU216HW,2013-07-07 06:06:00,
2013-07-07 02:11:00,67.0,64.8,29.90,SSW,203,0.0,0.7,93,0.00,,,0.00,WUHU216HW,2013-07-07 06:11:00,
2013-07-07 02:16:00,67.0,64.8,29.90,SSW,203,0.0,0.7,93,0.00,,,0.00,WUHU216HW,2013-07-07 06:16:00,
2013-07-07 02:21:00,67.0,64.8,29.90,SSW,203,0.0,0.4,93,0.00,,,0.00,WUHU216HW,2013-07-07 06:21:00,
2013-07-07 02:26:00,67.0,64.8,29.90,SSW,203,0.0,0.4,93,0.00,,,0.00,WUHU216HW,2013-07-07 06:26:00,
2013-07-07 02:31:00,66.8,64.6,29.89,SSW,203,0.0,0.4,93,0.00,,,0.00,WUHU216HW,2013-07-07 06:31:00,
2013-07-07 02:36:00,66.8,64.6,29.89,SSW,203,0.0,0.7,93,0.00,,,0.00,WUHU216HW,2013-07-07 06:36:00,
2013-07-07 02:41:00,66.8,64.6,29.89,SSW,203,0.0,0.7,93,0.00,,,0.00,WUHU216HW,2013-07-07 06:41:00,
2013-07-07 02:46:00,66.8,64.6,29.89,SSW,203,0.4,0.9,93,0.00,,,0.00,WUHU216HW,2013-07-07 06:46:00,
2013-07-07 02:51:00,66.8,64.6,29.89,SSW,203,0.0,0.9,93,0.00,,,0.00,WUHU216HW,2013-07-07 06:51:00,
2013-07-07 02:56:00,66.8,64.6,29.89,SSW,203,0.9,1.1,93,0.00,,,0.00,WUHU216HW,2013-07-07 06:56:00,
2013-07-07 03:01:00,66.6,64.4,29.89,SSW,203,0.0,1.1,93,0.00,,,0.00,WUHU216HW,2013-07-07 07:01:00,
2013-07-07 03:06:00,66.6,64.4,29.89,SSW,203,0.0,1.1,93,0.00,,,0.00,WUHU216HW,2013-07-07 07:06:00,
2013-07-07 03:11:00,66.6,64.4,29.89,SSW,203,0.0,1.1,93,0.00,,,0.00,WUHU216HW,2013-07-07 07:11:00,
2013-07-07 03:16:00,66.6,64.4,29.88,SW,225,0.0,1.6,93,0.00,,,0.00,WUHU216HW,2013-07-07 07:16:00,
2013-07-07 03:21:00,66.6,64.4,29.88,SSW,203,0.0,1.6,93,0.00,,,0.00,WUHU216HW,2013-07-07 07:21:00,
2013-07-07 03:26:00,66.6,64.4,29.88,SSW,203,0.0,1.3,93,0.00,,,0.00,WUHU216HW,2013-07-07 07:26:00,
2013-07-07 03:31:00,66.6,64.4,29.88,SSW,203,0.0,0.7,93,0.00,,,0.00,WUHU216HW,2013-07-07 07:31:00,
2013-07-07 03:36:00,66.6,64.4,29.88,SSW,203,0.0,0.7,93,0.00,,,0.00,WUHU216HW,2013-07-07 07:36:00,
2013-07-07 03:41:00,66.6,64.4,29.89,SSW,203,0.0,0.0,93,0.00,,,0.00,WUHU216HW,2013-07-07 07:41:00,
2013-07-07 03:46:00,66.6,64.4,29.89,SSW,203,0.0,0.0,93,0.00,,,0.00,WUHU216HW,2013-07-07 07:46:00,
2013-07-07 03:51:00,66.6,64.4,29.89,SSW,203,0.0,0.4,93,0.00,,,0.00,WUHU216HW,2013-07-07 07:51:00,
2013-07-07 03:56:00,66.6,64.8,29.89,NNE,23,0.0,1.3,94,0.00,,,0.00,WUHU216HW,2013-07-07 07:56:00,
2013-07-07 04:01:00,66.6,64.4,29.88,NE,45,0.0,1.3,93,0.00,,,0.00,WUHU216HW,2013-07-07 08:01:00,
2013-07-07 04:06:00,66.6,64.4,29.89,SSW,203,0.2,1.6,93,0.00,,,0.00,WUHU216HW,2013-07-07 08:06:00,
2013-07-07 04:11:00,66.6,64.4,29.89,SSW,203,0.0,1.6,93,0.00,,,0.00,WUHU216HW,2013-07-07 08:11:00,
2013-07-07 04:16:00,66.6,64.4,29.89,SE,135,0.0,0.4,93,0.00,,,0.00,WUHU216HW,2013-07-07 08:16:00,
2013-07-07 04:21:00,66.4,64.3,29.89,SSW,203,0.0,1.1,93,0.00,,,0.00,WUHU216HW,2013-07-07 08:21:00,
2013-07-07 04:26:00,66.4,64.3,29.88,SSW,203,0.0,1.1,93,0.00,,,0.00,WUHU216HW,2013-07-07 08:26:00,
2013-07-07 04:31:00,66.4,64.3,29.88,SSW,203,0.0,1.1,93,0.00,,,0.00,WUHU216HW,2013-07-07 08:31:00,
2013-07-07 04:36:00,66.4,64.3,29.88,SSW,203,0.0,1.1,93,0.00,,,0.00,WUHU216HW,2013-07-07 08:36:00,
2013-07-07 04:41:00,66.4,64.3,29.88,SSW,203,0.0,1.3,93,0.00,,,0.00,WUHU216HW,2013-07-07 08:41:00,
2013-07-07 04:46:00,66.2,64.1,29.89,SSW,203,0.0,1.3,93,0.00,,,0.00,WUHU216HW,2013-07-07 08:46:00,
2013-07-07 04:51:00,66.2,64.5,29.88,SSW,203,0.0,0.9,94,0.00,,,0.00,WUHU216HW,2013-07-07 08:51:00,
2013-07-07 04:56:00,66.2,64.5,29.88,SSW,203,0.2,1.1,94,0.00,,,0.00,WUHU216HW,2013-07-07 08:56:00,
2013-07-07 05:01:00,66.2,64.5,29.88,SSW,203,0.9,1.1,94,0.00,,,0.00,WUHU216HW,2013-07-07 09:01:00,
2013-07-07 05:06:00,66.2,64.5,29.88,SSW,203,0.4,1.1,94,0.00,,,0.00,WUHU216HW,2013-07-07 09:06:00,
2013-07-07 05:11:00,66.2,64.5,29.88,South,180,0.0,1.1,94,0.00,,,0.00,WUHU216HW,2013-07-07 09:11:00,
2013-07-07 05:16:00,66.2,64.5,29.88,South,180,0.2,0.7,94,0.00,,,0.00,WUHU216HW,2013-07-07 09:16:00,
2013-07-07 05:21:00,66.2,64.5,29.88,South,180,0.0,0.9,94,0.00,,,0.00,WUHU216HW,2013-07-07 09:21:00,
2013-07-07 05:26:00,66.2,64.5,29.88,South,180,0.0,0.9,94,0.00,,,0.00,WUHU216HW,2013-07-07 09:26:00,
2013-07-07 05:31:00,66.2,64.5,29.88,South,180,0.4,0.4,94,0.00,,,0.00,WUHU216HW,2013-07-07 09:31:00,
2013-07-07 05:36:00,66.2,64.5,29.88,South,180,0.2,0.4,94,0.00,,,0.00,WUHU216HW,2013-07-07 09:36:00,
2013-07-07 05:41:00,66.4,64.6,29.88,South,180,0.0,0.7,94,0.00,,,0.00,WUHU216HW,2013-07-07 09:41:00,
2013-07-07 05:46:00,66.2,64.5,29.88,South,180,0.0,0.7,94,0.00,,,0.00,WUHU216HW,2013-07-07 09:46:00,
2013-07-07 05:51:00,66.2,64.5,29.88,SSW,203,0.7,0.9,94,0.00,,,0.00,WUHU216HW,2013-07-07 09:51:00,
2013-07-07 05:56:00,66.2,64.5,29.88,SSW,203,0.0,1.1,94,0.00,,,0.00,WUHU216HW,2013-07-07 09:56:00,
2013-07-07 06:01:00,66.4,64.6,29.88,SSW,203,0.0,1.1,94,0.00,,,0.00,WUHU216HW,2013-07-07 10:01:00,
2013-07-07 06:06:00,66.4,64.6,29.89,SSW,203,0.0,0.7,94,0.00,,,0.00,WUHU216HW,2013-07-07 10:06:00,
2013-07-07 06:11:00,66.2,64.5,29.88,SSW,203,0.0,0.0,94,0.00,,,0.00,WUHU216HW,2013-07-07 10:11:00,
2013-07-07 06:16:00,66.4,64.6,29.88,SSW,203,0.0,0.0,94,0.00,,,0.00,WUHU216HW,2013-07-07 10:16:00,
2013-07-07 06:21:00,66.4,64.6,29.89,SSW,203,0.0,1.1,94,0.00,,,0.00,WUHU216HW,2013-07-07 10:21:00,
2013-07-07 06:26:00,66.4,64.6,29.88,SSW,203,0.0,1.1,94,0.00,,,0.00,WUHU216HW,2013-07-07 10:26:00,
2013-07-07 06:31:00,66.4,64.6,29.88,SSW,203,0.0,0.4,94,0.00,,,0.00,WUHU216HW,2013-07-07 10:31:00,
2013-07-07 06:36:00,66.2,64.5,29.89,SSW,203,0.4,0.4,94,0.00,,,0.00,WUHU216HW,2013-07-07 10:36:00,
2013-07-07 06:41:00,66.4,64.6,29.89,SSW,203,0.4,0.7,94,0.00,,,0.00,WUHU216HW,2013-07-07 10:41:00,
2013-07-07 06:46:00,66.4,64.6,29.89,SSW,203,0.0,0.7,94,0.00,,,0.00,WUHU216HW,2013-07-07 10:46:00,
2013-07-07 06:51:00,66.4,64.6,29.89,SSW,203,0.0,0.4,94,0.00,,,0.00,WUHU216HW,2013-07-07 10:51:00,
2013-07-07 06:56:00,66.4,64.6,29.89,SSW,203,0.0,0.9,94,0.00,,,0.00,WUHU216HW,2013-07-07 10:56:00,
2013-07-07 07:01:00,66.4,64.6,29.89,SSW,203,0.0,0.9,94,0.00,,,0.00,WUHU216HW,2013-07-07 11:01:00,
2013-07-07 07:06:00,66.4,64.6,29.89,SSW,203,0.4,0.4,94,0.00,,,0.00,WUHU216HW,2013-07-07 11:06:00,
2013-07-07 07:11:00,66.6,64.8,29.89,SSW,203,0.0,0.4,94,0.00,,,0.00,WUHU216HW,2013-07-07 11:11:00,
2013-07-07 07:16:00,66.6,64.8,29.90,SSE,158,0.0,0.4,94,0.00,,,0.00,WUHU216HW,2013-07-07 11:16:00,
2013-07-07 07:21:00,66.6,64.8,29.89,SSE,158,0.0,0.0,94,0.00,,,0.00,WUHU216HW,2013-07-07 11:21:00,
2013-07-07 07:26:00,66.8,65.0,29.89,SSE,158,0.0,0.0,94,0.00,,,0.00,WUHU216HW,2013-07-07 11:26:00,
2013-07-07 07:31:00,67.0,65.2,29.90,SSE,158,0.0,0.0,94,0.00,,,0.00,WUHU216HW,2013-07-07 11:31:00,
2013-07-07 07:36:00,67.1,65.4,29.90,SSE,158,0.0,0.0,94,0.00,,,0.00,WUHU216HW,2013-07-07 11:36:00,
2013-07-07 07:41:00,67.1,65.4,29.90,SSE,158,0.4,0.4,94,0.00,,,0.00,WUHU216HW,2013-07-07 11:41:00,
2013-07-07 07:46:00,67.3,65.5,29.90,SSW,203,0.4,0.4,94,0.00,,,0.00,WUHU216HW,2013-07-07 11:46:00,
2013-07-07 07:51:00,67.3,65.5,29.90,SSW,203,0.0,0.4,94,0.00,,,0.00,WUHU216HW,2013-07-07 11:51:00,
2013-07-07 07:56:00,67.5,65.7,29.91,SSW,203,0.0,0.4,94,0.00,,,0.00,WUHU216HW,2013-07-07 11:56:00,
2013-07-07 08:01:00,67.5,65.7,29.91,SSW,203,0.4,0.4,94,0.00,,,0.00,WUHU216HW,2013-07-07 12:01:00,
2013-07-07 08:06:00,67.5,65.7,29.91,SSW,203,0.0,0.7,94,0.00,,,0.00,WUHU216HW,2013-07-07 12:06:00,
2013-07-07 08:11:00,67.5,65.7,29.91,SSW,203,0.0,0.7,94,0.00,,,0.00,WUHU216HW,2013-07-07 12:11:00,
2013-07-07 08:16:00,67.7,65.5,29.91,SSW,203,0.0,0.0,93,0.00,,,0.00,WUHU216HW,2013-07-07 12:16:00,
2013-07-07 08:21:00,67.7,65.9,29.91,SSW,203,0.0,0.0,94,0.00,,,0.00,WUHU216HW,2013-07-07 12:21:00,
2013-07-07 08:26:00,67.9,65.7,29.92,SSW,203,0.0,0.0,93,0.00,,,0.00,WUHU216HW,2013-07-07 12:26:00,
2013-07-07 08:31:00,67.9,65.7,29.92,SSW,203,0.0,0.0,93,0.00,,,0.00,WUHU216HW,2013-07-07 12:31:00,
2013-07-07 08:36:00,68.0,65.9,29.92,SSW,203,0.0,0.0,93,0.00,,,0.00,WUHU216HW,2013-07-07 12:36:00,
2013-07-07 08:41:00,68.0,65.9,29.92,SSW,203,0.0,0.0,93,0.01,,,0.01,WUHU216HW,2013-07-07 12:41:00,
2013-07-07 08:46:00,68.0,65.9,29.92,SSW,203,0.0,0.4,93,0.01,,,0.01,WUHU216HW,2013-07-07 12:46:00,
2013-07-07 08:51:00,68.2,66.1,29.92,SSW,203,0.0,0.4,93,0.02,,,0.02,WUHU216HW,2013-07-07 12:51:00,
2013-07-07 08:56:00,68.4,66.2,29.92,SSW,203,0.0,0.0,93,0.02,,,0.02,WUHU216HW,2013-07-07 12:56:00,
2013-07-07 09:01:00,68.9,66.8,29.92,SSW,203,0.0,0.0,93,0.02,,,0.02,WUHU216HW,2013-07-07 13:01:00,
2013-07-07 09:06:00,69.5,67.3,29.93,SSW,203,0.0,0.0,93,0.02,,,0.02,WUHU216HW,2013-07-07 13:06:00,
2013-07-07 09:11:00,70.2,68.0,29.93,SSW,203,0.0,0.4,93,0.02,,,0.02,WUHU216HW,2013-07-07 13:11:00,
2013-07-07 09:16:00,71.1,68.9,29.92,SSW,203,0.0,0.4,93,0.02,,,0.02,WUHU216HW,2013-07-07 13:16:00,
2013-07-07 09:21:00,72.2,69.8,29.93,SSW,203,0.0,0.7,92,0.02,,,0.02,WUHU216HW,2013-07-07 13:21:00,
2013-07-07 09:26:00,73.1,70.3,29.93,SW,225,0.0,0.7,91,0.02,,,0.02,WUHU216HW,2013-07-07 13:26:00,
2013-07-07 09:31:00,73.6,70.6,29.93,North,0,0.0,0.4,90,0.02,,,0.02,WUHU216HW,2013-07-07 13:31:00,
2013-07-07 09:36:00,73.8,70.4,29.93,WSW,248,0.7,0.7,89,0.01,,,0.02,WUHU216HW,2013-07-07 13:36:00,
2013-07-07 09:41:00,73.3,69.8,29.93,WSW,248,0.4,0.7,89,0.01,,,0.02,WUHU216HW,2013-07-07 13:41:00,
2013-07-07 09:46:00,72.9,69.1,29.93,WSW,248,0.0,0.7,88,0.01,,,0.02,WUHU216HW,2013-07-07 13:46:00,
2013-07-07 09:51:00,72.5,68.8,29.93,SSW,203,0.0,1.1,88,0.00,,,0.02,WUHU216HW,2013-07-07 13:51:00,
2013-07-07 09:56:00,72.4,68.6,29.93,SW,225,0.0,1.1,88,0.00,,,0.02,WUHU216HW,2013-07-07 13:56:00,
2013-07-07 10:01:00,72.2,68.4,29.93,SSW,203,0.0,0.4,88,0.00,,,0.02,WUHU216HW,2013-07-07 14:01:00,
2013-07-07 10:06:00,71.8,68.0,29.93,SSW,203,0.0,0.4,88,0.00,,,0.02,WUHU216HW,2013-07-07 14:06:00,
2013-07-07 10:11:00,71.6,67.9,29.93,SSW,203,0.0,0.4,88,0.00,,,0.02,WUHU216HW,2013-07-07 14:11:00,
2013-07-07 10:16:00,71.6,67.9,29.93,SSW,203,0.0,0.0,88,0.00,,,0.02,WUHU216HW,2013-07-07 14:16:00,
2013-07-07 10:21:00,71.6,67.9,29.93,NNE,23,0.0,0.9,88,0.00,,,0.02,WUHU216HW,2013-07-07 14:21:00,
2013-07-07 10:26:00,71.5,68.0,29.93,NNE,23,0.0,0.9,89,0.00,,,0.02,WUHU216HW,2013-07-07 14:26:00,
2013-07-07 10:31:00,71.8,68.4,29.92,NNE,23,0.0,0.9,89,0.00,,,0.02,WUHU216HW,2013-07-07 14:31:00,
2013-07-07 10:36:00,72.4,68.9,29.93,NNE,23,0.0,0.2,89,0.00,,,0.02,WUHU216HW,2013-07-07 14:36:00,
2013-07-07 10:41:00,73.1,69.7,29.93,NNE,23,0.0,0.0,89,0.00,,,0.02,WUHU216HW,2013-07-07 14:41:00,
2013-07-07 10:46:00,73.8,70.4,29.92,NNE,23,0.0,0.0,89,0.00,,,0.02,WUHU216HW,2013-07-07 14:46:00,
2013-07-07 10:51:00,73.8,70.0,29.92,NE,45,1.1,1.1,88,0.00,,,0.02,WUHU216HW,2013-07-07 14:51:00,
2013-07-07 10:56:00,73.8,70.0,29.93,NE,45,0.4,1.1,88,0.00,,,0.02,WUHU216HW,2013-07-07 14:56:00,
2013-07-07 11:01:00,73.8,70.0,29.93,NNE,23,0.0,1.1,88,0.00,,,0.02,WUHU216HW,2013-07-07 15:01:00,
2013-07-07 11:06:00,74.0,70.2,29.93,NNE,23,0.0,0.7,88,0.00,,,0.02,WUHU216HW,2013-07-07 15:06:00,
2013-07-07 11:11:00,73.8,69.4,29.93,NNE,23,1.1,1.3,86,0.00,,,0.02,WUHU216HW,2013-07-07 15:11:00,
2013-07-07 11:16:00,73.6,69.6,29.93,NE,45,0.2,1.3,87,0.00,,,0.02,WUHU216HW,2013-07-07 15:16:00,
2013-07-07 11:21:00,74.0,69.9,29.93,NE,45,0.0,1.1,87,0.00,,,0.02,WUHU216HW,2013-07-07 15:21:00,
2013-07-07 11:26:00,74.7,70.7,29.93,NE,45,0.0,0.2,87,0.00,,,0.02,WUHU216HW,2013-07-07 15:26:00,
2013-07-07 11:31:00,75.6,71.2,29.93,NNW,338,0.0,0.4,86,0.00,,,0.02,WUHU216HW,2013-07-07 15:31:00,
2013-07-07 11:36:00,76.0,70.8,29.93,West,270,0.0,0.4,84,0.00,,,0.02,WUHU216HW,2013-07-07 15:36:00,
2013-07-07 11:41:00,76.1,71.0,29.93,SW,225,0.7,0.7,84,0.00,,,0.02,WUHU216HW,2013-07-07 15:41:00,
2013-07-07 11:46:00,76.5,70.9,29.93,NW,315,0.0,0.9,83,0.00,,,0.02,WUHU216HW,2013-07-07 15:46:00,
2013-07-07 11:51:00,76.5,70.6,29.93,SW,225,0.7,0.9,82,0.00,,,0.02,WUHU216HW,2013-07-07 15:51:00,
2013-07-07 11:56:00,76.7,71.1,29.93,SW,225,0.0,1.1,83,0.00,,,0.02,WUHU216HW,2013-07-07 15:56:00,
2013-07-07 12:01:00,76.7,70.7,29.93,SW,225,0.2,1.1,82,0.00,,,0.02,WUHU216HW,2013-07-07 16:01:00,
2013-07-07 12:06:00,76.3,70.1,29.93,SW,225,0.0,0.9,81,0.00,,,0.02,WUHU216HW,2013-07-07 16:06:00,
2013-07-07 12:11:00,76.1,70.3,29.93,SW,225,0.0,0.7,82,0.00,,,0.02,WUHU216HW,2013-07-07 16:11:00,
2013-07-07 12:16:00,76.0,70.1,29.93,WNW,293,0.0,0.9,82,0.00,,,0.02,WUHU216HW,2013-07-07 16:16:00,
2013-07-07 12:21:00,75.6,69.8,29.93,WNW,293,0.0,0.9,82,0.00,,,0.02,WUHU216HW,2013-07-07 16:21:00,
2013-07-07 12:26:00,75.6,69.8,29.93,WNW,293,0.0,0.0,82,0.00,,,0.02,WUHU216HW,2013-07-07 16:26:00,
2013-07-07 13:00:00,77.0,70.7,29.93,SSW,203,0.0,0.0,81,0.00,,,0.02,WUHU216HW,2013-07-07 17:00:00,
2013-07-07 13:05:00,77.0,70.7,29.93,SSW,203,0.0,0.0,81,0.00,,,0.02,WUHU216HW,2013-07-07 17:05:00,
2013-07-07 14:00:00,78.5,71.5,29.93,SSW,203,0.0,0.0,79,0.01,,,0.02,WUHU216HW,2013-07-07 18:00:00,
2013-07-07 14:05:00,78.5,71.5,29.93,SW,225,0.0,0.9,79,0.01,,,0.03,WUHU216HW,2013-07-07 18:05:00,
2013-07-07 14:10:00,78.5,71.5,29.92,SSW,203,0.0,1.1,79,0.01,,,0.03,WUHU216HW,2013-07-07 18:10:00,
2013-07-07 14:15:00,78.8,72.2,29.92,SSW,203,0.0,1.1,80,0.01,,,0.03,WUHU216HW,2013-07-07 18:15:00,
2013-07-07 14:20:00,79.6,72.1,29.92,WSW,248,0.0,0.7,78,0.01,,,0.03,WUHU216HW,2013-07-07 18:20:00,
2013-07-07 14:25:00,79.6,72.1,29.92,West,270,0.0,0.7,78,0.01,,,0.03,WUHU216HW,2013-07-07 18:25:00,
2013-07-07 14:30:00,79.6,72.1,29.92,West,270,0.0,0.0,78,0.01,,,0.03,WUHU216HW,2013-07-07 18:30:00,
2013-07-07 15:00:00,81.2,72.6,29.91,SW,225,0.0,0.0,75,0.00,,,0.03,WUHU216HW,2013-07-07 19:00:00,
2013-07-07 15:05:00,81.2,72.6,29.91,SW,225,0.0,0.0,75,0.00,,,0.03,WUHU216HW,2013-07-07 19:05:00,
2013-07-07 16:00:00,80.6,71.2,29.90,SW,225,0.2,0.2,73,0.00,,,0.03,WUHU216HW,2013-07-07 20:00:00,
2013-07-07 16:05:00,80.6,71.2,29.90,SW,225,0.2,0.2,73,0.00,,,0.03,WUHU216HW,2013-07-07 20:05:00,
2013-07-07 18:00:00,85.1,72.0,29.88,SSW,203,0.2,0.2,65,0.00,,,0.03,WUHU216HW,2013-07-07 22:00:00,
2013-07-07 18:05:00,85.1,72.0,29.88,SSW,203,0.2,0.2,65,0.00,,,0.03,WUHU216HW,2013-07-07 22:05:00,
2013-07-07 21:00:00,73.1,65.9,29.90,East,90,0.0,0.0,78,0.00,,,0.03,WUHU216HW,2013-07-08 01:00:00,
2013-07-07 21:05:00,73.1,65.9,29.90,East,90,0.0,0.0,78,0.00,,,0.03,WUHU216HW,2013-07-08 01:05:00,
2013-07-07 22:00:00,70.9,65.2,29.92,North,0,0.0,0.0,82,0.00,,,0.03,WUHU216HW,2013-07-08 02:00:00,
2013-07-07 22:05:00,70.9,65.2,29.92,North,0,0.0,0.0,82,0.00,,,0.03,WUHU216HW,2013-07-08 02:05:00,
2013-07-07 23:00:00,70.2,65.4,29.94,NE,45,0.0,0.0,85,0.00,,,0.03,WUHU216HW,2013-07-08 03:00:00,
2013-07-07 23:05:00,70.2,65.4,29.94,NE,45,0.0,0.0,85,0.00,,,0.03,WUHU216HW,2013-07-08 03:05:00,